Location: Asheville, NC
(35.6000°N, 82.5500°W)
Time: 04:48:35
(UTC-04:00)

Hubble Space Telescope - Visible Passes

Search period start: 25 May 2018 00:00
Search period end: 04 June 2018 00:00
Orbit: 537 x 541 km, 28.5° (Epoch: 24 May)

Date Brightness Start Highest point End Pass type
(mag) Time Alt. Az. Time Alt. Az. Time Alt. Az.
28 May 2.4 05:39:32 10° SW 05:42:44 21° SSE 05:45:55 10° ESE visible
29 May 2.2 05:29:15 11° SW 05:32:18 24° S 05:35:40 10° ESE visible
30 May 2.0 05:19:18 15° SW 05:21:55 26° S 05:25:23 10° ESE visible
31 May 1.9 05:09:22 18° SW 05:11:30 28° S 05:15:04 10° ESE visible
01 Jun 1.8 04:59:28 22° SW 05:01:06 29° S 05:04:43 10° ESE visible
02 Jun 1.7 04:49:38 26° SSW 04:50:42 30° S 04:54:21 10° ESE visible
03 Jun 1.6 04:39:52 29° SSW 04:40:19 30° S 04:43:57 10° ESE visible
